[Date Prev][Date Next][Thread Prev][Thread Next] - [Date Index][Thread Index][Author Index]

2 Line ISS Keps 2-17



ISS
1 25544U 98067A   05048.35960255  .00034195  00000-0  28314-3 0  8332
2 25544  51.6447 153.7072 0004647 112.8073 315.2558 15.69901783356841
----
Via the sarex mailing list at AMSAT.ORG courtesy of AMSAT-NA.
To unsubscribe, send "unsubscribe sarex" to Majordomo@amsat.org



AMSAT Top AMSAT Home